Regional Weather Roundup
Issued by NWS Northern Indiana

Home | Current Version | Previous Version | Text Only | Print | Product List | Glossary On
Versions: 1 2 3 4 5 6 7 8 9 10 11 12 13 14 15 16 17 18 19 20 21 22 23 24 25 26 27 28 29 30 31 32 33 34 35 36 37 38 39 40 41 42 43 44 45 46 47 48 49 50
000
ASUS43 KIWX 011410
RWRIWX

KIWX WEATHER ROUNDUP
NATIONAL WEATHER SERVICE NORTHERN INDIANA
1000 AM EDT SAT AUG 01 2015

NOTE: "FAIR" INDICATES FEW OR NO CLOUDS BELOW 12,000 FEET WITH NO
SIGNIFICANT WEATHER AND/OR OBSTRUCTIONS TO VISIBILITY.

* THESE STATIONS ARE NOT UNDER NWS QUALITY CONTROL. THEY ALSO MAY NOT
  REPORT WEATHER SUCH AS PRECIPITATION OR FOG.

INZ001>027-011500-
NORTHERN INDIANA

CITY           SKY/WX    TMP DP  RH WIND       PRES   REMARKS
GARY*          SUNNY     75  55  50 W8        30.00S
VALPARAISO     SUNNY     75  56  51 VRB5      30.01S
MICHIGAN CITY* SUNNY     73  59  60 W5        30.00S
LAPORTE*       SUNNY     75  59  56 W5        30.01S
KNOX*          SUNNY     72  55  56 W5        30.00S
SOUTH BEND     SUNNY     75  61  61 NW9       30.00S
ELKHART*       SUNNY     75  59  57 W9        30.00R
GOSHEN         SUNNY     74  63  68 W9        29.99S
MONTICELLO*    SUNNY     71  60  69 NW6       30.02R
LOGANSPORT*    SUNNY     72  52  49 NW5       30.03S
ROCHESTER*     SUNNY     73  59  60 W6        30.02R
WARSAW*        SUNNY     72  61  68 NW9       30.01R
ANGOLA*        SUNNY     73  59  60 NW8       29.99S
FORT WAYNE     SUNNY     73  59  61 NW6       30.01R
HUNTINGTON*    SUNNY     71  61  69 NW5       30.01R
PERU/GRISSOM   SUNNY     71  59  64 W7        30.01S
MARION*        SUNNY     69  59  69 W5        30.03R

$$
INZ028>050-011500-
CENTRAL INDIANA

CITY           SKY/WX    TMP DP  RH WIND       PRES   REMARKS
LAFAYETTE      SUNNY     72  61  68 W7        30.02S
KOKOMO*        SUNNY     72  59  64 NW7       30.03R
MUNCIE*        SUNNY     71  60  68 NW6       30.02S
INDIANAPOLIS   MOSUNNY   75  55  49 N9        30.02R

$$
MIZ043>046-050>051-056>058-064>065-071>073-077>080-011500-
SOUTHWEST LOWER MICHIGAN

CITY           SKY/WX    TMP DP  RH WIND       PRES   REMARKS
BATTLE CREEK   SUNNY     74  60  61 W12       29.98R
BENTON HARBOR  SUNNY     75  62  64 W12       29.98R
COLDWATER*     SUNNY     73  58  59 W6        29.98S
HILLSDALE*     SUNNY     73  59  62 W5        29.98S
HOLLAND        SUNNY     75  60  59 VRB7      29.96S
GRAND RAPIDS   MOSUNNY   75  59  57 W10       29.95R
KALAMAZOO      MOSUNNY   75  58  55 W10       29.97S
STURGIS*       SUNNY     72  63  73 W3        29.98S
THREE RIVERS*  FAIR      75  57  52 W8        29.98S

$$
OHZ001>008-015>018-024>025-011500-
NORTHWEST OHIO

CITY           SKY/WX    TMP DP  RH WIND       PRES   REMARKS
WAUSEON*       FAIR      72  63  73 NW8G15    29.97R
DEFIANCE       SUNNY     74  58  57 W6        29.98R
FINDLAY        SUNNY     73  60  63 W7        29.97S
TOLEDO EXPRESS SUNNY     72  59  63 W8        29.95S
TOLEDO METCALF SUNNY     73  58  59 W6        29.96S
LIMA           SUNNY     73  59  61 W6        29.99S

$$
AND FOR LAKE MICHIGAN COASTAL AND OPEN LAKE BUOY OBSERVATIONS

STATION/POSITION TEMP    WIND        PRES    VSBY  WAVE
                 AIR SEA DIR/SP/G                  HT/PER
                 (F)     (DEG/KT/KT) (MB)    (MI)  (FT/S)
CALUMET HARBOR    72     250/  3/  6   N/A
MICHIGAN CITY     71     210/ 13/ 14   N/A
BURNS HARBOR      71     250/  6/  7 1016.3S
SAINT JOSEPH      73     240/  7/  9 1016.3R
4 MI NW BRIDGMAN  72 74  310/ 10/ 12   N/A           3/ 4
MICHIGAN CITY     73 73  270/ 10/ 12   N/A           2/ 4

$$
&&



USA.gov is the U.S. government's official web portal to all federal, state and local government web resources and services.